Location: Asheville, NC
(35.6000°N, 82.5500°W)
Time: 16:27:19
(UTC-05:00)

Vanguard 1 Rocket - Pass Details

Date: 10 December 2017
Orbit: 656 x 4222 km, 34.3° (Epoch: 17 January)

Event Time Altitude Azimuth Distance (km) Brightness Sun altitude
Rises 03:07:50 0° 282° (WNW) 8,295 - -52.2°
Reaches altitude 10° 03:16:40 10° 267° (W) 7,422 - -50.4°
Maximum altitude 03:30:47 18° 234° (SW) 6,461 - -47.6°
Exits shadow 03:40:32 13° 206° (SSW) 6,335 11.4 -45.6°
Drops below altitude 10° 03:43:21 10° 198° (SSW) 6,407 11.5 -45.0°
Sets 03:50:16 0° 181° (S) 6,807 11.8 -43.6°
